Location: Grand Rapids
(42.9630°N, 85.6680°W)
Time: 02:39:38
(UTC-04:00)

A-11 Canister half - Pass Details

Date: 08 June 2024
Orbit: 1524 x 1684 km, 47.3° (Epoch: 21 June)

Event Time Altitude Azimuth Distance (km) Brightness Sun altitude
Rises 03:15:12 0° 283° (WNW) 4,757 11.5 -20.7°
Enters shadow 03:21:14 - 254° (WSW) 3,894 10.7 -20.3°
Reaches altitude 10° 03:23:07 10° 243° (WSW) 3,818 - -20.1°
Maximum altitude 03:23:41 10° 239° (WSW) 3,816 - -20.1°
Drops below altitude 10° 03:24:16 10° 236° (SW) 3,825 - -20.0°
Sets 03:32:23 0° 195° (SSW) 4,856 - -19.4°
